Wind_Speed
14 13 12 11 9 9 9 7 7 6 6 6 5 5 4 4 4 3 3 3 3 4 4 5 6 6 7 7 8 8 8 8 8 8 8 9 9 9 9 9 9 9 9 10 10 11 11 11 11
15 14 13 12 11 10 10 9 8 8 7 6 6 6 6 5 5 5 4 4 5 5 6 6 7 7 7 8 9 9 9 9 9 9 10 10 10 10 10 10 10 10 10 11 11 11 12 12 12
16 15 14 12 12 11 10 10 9 8 7 7 7 7 7 6 6 6 6 6 6 7 7 7 7 8 8 9 10 10 11 10 10 11 11 11 11 11 11 11 11 12 12 12 12 13 13 13 13
17 15 14 13 12 11 11 10 8 8 7 7 8 9 8 8 7 7 7 7 8 8 8 8 9 9 10 11 12 12 12 12 12 12 12 12 12 12 12 13 13 13 13 14 14 14 14 14 14
18 16 14 13 12 11 10 10 9 8 8 8 9 10 10 9 8 8 8 9 10 9 10 10 10 11 12 12 13 13 13 13 13 14 14 14 14 14 14 14 14 14 14 15 15 15 15 15 15
18 17 15 14 13 11 10 10 10 9 9 9 10 11 11 11 10 9 10 10 11 11 11 11 12 12 13 14 14 14 14 15 15 15 15 15 15 16 16 16 15 15 16 16 16 16 16 16 16
18 17 16 14 13 12 11 10 10 10 11 11 11 11 11 11 11 12 12 12 12 13 12 13 13 14 15 16 16 16 16 16 17 17 17 17 17 17 17 18 17 17 17 17 18 17 17 17 17
17 17 16 15 13 13 12 12 11 11 11 12 12 12 13 12 12 13 13 12 13 14 15 15 15 16 16 17 17 18 18 18 18 18 18 18 18 19 19 19 18 19 19 19 19 19 19 19 20
17 16 16 15 14 14 13 13 12 11 12 13 13 13 14 13 14 14 14 13 14 15 16 16 16 17 17 18 19 19 19 19 19 19 19 19 20 20 20 20 21 21 21 21 21 20 21 21 22
16 15 16 16 15 14 13 13 13 12 13 13 13 14 15 15 15 15 15 15 15 16 17 18 18 18 18 19 20 21 21 21 20 20 21 21 21 22 22 22 22 23 23 23 22 23 23 23 23
15 15 16 15 15 15 14 14 13 14 14 13 14 14 15 16 16 16 16 17 17 17 18 19 19 19 19 20 21 21 22 22 22 22 23 23 23 23 23 24 24 24 24 24 24 24 24 24 24
14 14 14 14 14 14 14 14 14 15 16 15 15 16 17 17 17 17 17 17 17 18 18 19 21 21 21 22 22 22 23 23 23 23 23 24 24 24 25 26 26 26 26 26 26 26 26 26 26
12 13 13 13 13 14 14 13 14 15 15 16 16 18 18 18 20 20 19 19 19 20 20 20 21 22 22 22 23 23 23 24 25 25 24 25 25 26 26 27 27 27 28 28 27 27 27 27 27
11 12 12 12 12 13 13 13 13 13 14 16 17 19 19 20 22 22 21 21 21 21 22 22 23 23 23 23 23 24 24 25 25 25 25 25 26 27 27 27 27 28 28 29 29 29 28 28 28
10 11 11 11 12 12 13 14 14 13 14 16 17 19 20 22 23 22 22 22 22 23 23 24 24 24 24 24 24 24 24 25 25 26 26 27 28 28 28 28 29 29 30 30 29 29 29 30 30
9 9 11 12 12 12 12 14 14 14 15 17 18 20 21 22 22 22 23 24 24 23 24 24 25 25 25 25 24 24 24 25 26 27 28 28 28 29 28 28 29 30 31 31 30 31 31 31 31
9 10 11 12 13 13 13 14 14 15 16 18 19 19 20 22 23 23 24 23 23 23 24 25 25 25 26 26 25 24 25 25 26 27 28 27 28 28 28 29 30 31 32 32 32 31 32 32 32
10 10 11 12 13 13 14 15 15 15 16 17 18 19 20 21 21 22 22 22 22 23 24 25 25 25 25 25 25 24 24 25 25 26 26 27 28 28 28 29 30 31 31 31 31 32 31 32 33
10 10 11 12 13 14 14 15 15 16 17 17 18 19 20 20 21 21 21 22 22 23 24 25 24 24 24 24 24 24 25 25 26 26 26 26 26 27 28 29 30 31 31 31 31 31 31 31 32
9 10 11 12 13 14 15 14 15 17 17 17 18 19 19 20 21 21 21 22 22 23 23 23 22 23 23 23 23 24 25 26 26 26 26 25 26 26 27 28 29 29 30 30 30 30 30 31 31
9 10 11 12 13 14 15 15 16 17 17 18 19 19 19 20 20 20 21 21 21 22 21 22 22 22 23 23 23 24 25 25 25 25 25 25 25 26 26 26 27 28 29 28 28 28 29 30 30
10 11 12 13 14 15 15 16 16 17 18 19 19 19 19 19 19 20 20 21 20 20 21 22 22 22 22 23 24 24 25 25 25 25 25 25 25 25 25 26 26 27 27 27 28 28 28 28 28
10 11 12 13 14 14 14 15 15 16 17 18 19 19 19 18 19 20 21 20 19 19 20 21 21 22 22 23 23 24 25 24 25 25 25 25 25 25 25 25 26 26 26 26 27 27 27 28 27
10 11 12 12 12 13 14 15 15 16 17 18 18 18 18 19 19 20 20 19 19 20 20 20 22 22 22 22 23 24 25 25 25 24 25 25 26 25 25 26 26 26 26 26 26 27 27 27 26
10 10 10 10 11 13 15 16 17 17 17 18 18 18 18 19 20 20 19 19 20 20 20 20 21 22 22 22 22 23 23 24 23 22 23 25 25 26 26 26 25 25 25 25 26 27 26 26 26
11 10 11 12 13 14 15 16 18 17 16 17 18 18 18 18 18 18 18 19 20 20 21 21 21 22 21 21 22 22 22 22 22 22 22 23 23 24 25 25 25 25 25 25 26 26 26 26 25
13 12 12 13 14 15 16 17 18 18 17 17 18 18 18 18 18 18 18 19 19 20 21 21 21 21 21 21 21 21 21 22 22 22 22 23 24 24 24 24 24 25 24 25 25 25 25 25 24
14 14 14 14 16 17 18 18 18 19 19 19 19 18 18 18 18 19 19 19 20 20 19 19 20 20 20 21 21 21 22 21 22 22 22 23 23 23 23 24 24 24 23 23 24 24 24 24 24
15 15 16 16 18 18 19 19 20 20 21 21 20 20 19 19 19 19 20 20 20 19 18 19 19 19 19 19 20 20 21 21 21 22 22 22 22 22 22 22 23 23 22 22 23 23 23 23 23
16 16 16 18 19 19 20 20 21 21 21 22 22 21 20 20 20 20 19 19 18 18 18 18 18 18 18 18 18 19 19 19 20 20 21 21 21 21 22 22 21 21 21 22 22 22 22 22 22
Wind_Direction
212 213 213 214 214 220 225 225 226 222 227 231 232 227 224 232 237 254 275 288 311 320 326 330 334 333 331 326 323 324 323 320 319 321 322 322 319 317 315 314 312 309 307 306 303 300 296 295 294
214 214 215 216 214 223 231 231 233 231 231 238 241 239 241 249 252 260 270 289 300 308 316 320 322 323 323 320 317 318 318 317 317 317 318 318 316 313 310 308 307 305 303 302 300 298 294 291 289
215 215 216 217 218 222 229 230 232 236 236 240 243 245 250 255 261 270 280 290 299 304 310 314 315 316 317 315 315 316 314 314 313 313 313 313 312 309 307 306 304 302 300 299 298 296 293 289 286
215 217 218 220 222 221 221 226 232 243 245 244 244 248 251 257 267 274 280 288 296 301 303 306 308 309 311 311 311 311 310 310 309 309 308 306 306 306 305 304 301 298 297 295 294 294 291 288 286
216 219 219 222 223 223 227 232 240 248 252 249 250 252 257 261 268 275 282 289 296 298 300 303 306 308 309 307 308 306 306 306 306 306 304 303 302 302 302 300 298 296 294 294 292 291 289 288 285
215 218 220 224 225 225 229 235 243 248 258 259 256 259 263 266 271 277 284 290 294 298 301 304 306 308 308 306 305 303 303 303 303 302 301 301 301 300 299 297 295 294 293 292 291 289 287 286 285
214 217 219 223 225 228 232 236 245 253 262 265 267 265 268 269 272 278 282 289 295 296 298 300 301 303 304 303 303 301 301 300 300 299 297 298 298 297 296 295 292 291 290 289 290 289 287 284 284
214 217 220 223 227 232 237 243 249 256 263 268 270 269 272 272 273 278 283 289 293 295 296 296 296 297 300 300 300 299 297 296 295 295 294 294 295 294 294 293 292 290 290 289 289 290 289 286 284
213 215 221 225 228 234 241 246 251 257 264 269 273 275 276 275 277 281 284 287 289 292 294 294 295 295 297 297 297 296 294 292 292 292 291 291 292 292 292 292 291 290 289 287 287 288 288 288 287
214 217 223 226 231 235 240 244 252 259 264 268 272 273 274 278 279 282 284 285 287 291 294 295 293 293 294 295 295 293 293 290 290 291 291 290 290 291 291 291 291 290 289 287 287 287 288 288 288
219 221 223 227 233 236 242 247 251 257 259 264 271 275 275 276 278 281 284 286 288 290 293 295 292 292 292 293 294 293 290 289 288 290 291 291 289 290 289 290 290 289 288 288 287 286 287 286 287
223 226 227 231 236 240 244 248 253 258 261 265 269 275 277 280 281 283 285 285 288 288 291 292 292 290 290 291 291 291 288 286 287 289 290 289 289 289 289 288 288 288 288 288 287 287 287 286 286
229 231 233 235 239 243 248 252 257 260 266 269 269 272 276 280 281 282 284 285 286 287 288 290 291 289 289 289 288 287 287 286 288 289 289 288 287 288 289 288 288 289 289 289 288 288 288 286 285
229 233 236 237 243 247 251 257 261 264 268 271 273 274 277 278 280 279 281 283 283 283 284 287 289 287 285 284 286 286 286 287 287 289 291 291 291 291 290 289 288 289 289 288 288 287 286 285 284
227 233 240 243 248 253 255 257 262 266 270 274 275 276 277 278 278 276 277 278 279 279 281 283 285 285 283 283 283 286 287 287 287 289 291 291 291 291 291 290 288 287 287 287 288 287 286 285 285
226 234 242 246 250 253 256 258 262 266 273 278 279 279 280 279 276 275 275 276 277 277 278 280 283 284 281 282 283 287 287 287 287 289 290 291 292 291 291 291 289 288 287 287 286 286 285 284 284
231 234 241 248 250 255 257 260 265 274 280 283 283 282 281 280 279 277 278 276 275 274 276 279 282 282 281 282 285 287 288 289 289 290 292 292 294 292 290 291 292 292 291 288 287 286 286 285 284
234 242 248 249 252 256 261 268 275 279 282 284 286 286 283 281 279 279 280 278 274 273 275 278 280 281 283 284 285 286 290 291 292 292 293 294 295 294 293 293 292 292 292 291 289 287 287 286 284
238 247 255 256 259 262 267 273 278 279 282 284 286 287 286 283 282 280 279 277 274 273 275 278 278 281 281 283 284 286 290 291 292 295 296 297 297 297 297 296 294 292 292 292 292 290 288 286 285
248 254 260 265 269 274 277 277 279 281 282 286 288 289 289 286 284 284 280 275 273 273 275 276 278 280 280 282 283 285 289 291 292 295 297 297 298 299 298 298 296 294 294 293 293 291 291 288 285
261 266 269 274 279 282 285 288 285 285 284 288 290 290 290 289 287 285 280 276 277 276 276 278 280 280 279 282 285 287 289 291 293 294 295 297 299 301 301 301 299 297 297 297 296 296 295 292 287
274 275 279 281 286 286 288 292 290 287 286 288 291 293 292 291 289 286 283 280 279 278 278 279 278 278 280 282 285 288 290 291 292 293 295 297 300 301 302 302 303 300 298 299 300 299 298 296 292
275 278 281 286 289 291 293 295 290 288 290 292 293 294 293 292 292 290 287 285 283 279 279 281 280 280 280 283 285 288 290 290 290 292 294 297 299 300 301 304 304 304 303 303 303 303 302 299 296
284 285 288 289 290 290 291 292 291 290 290 293 294 293 292 290 290 290 287 286 287 287 284 283 282 280 281 283 286 288 290 291 291 292 294 296 298 300 302 306 307 306 306 306 305 303 304 302 299
288 292 298 297 293 292 293 293 293 291 291 292 293 293 292 289 287 289 290 289 291 290 288 287 285 285 286 288 288 289 291 292 292 293 294 296 297 300 303 305 308 308 307 308 307 305 305 303 300
290 290 291 294 293 293 295 297 297 295 294 293 294 295 293 291 288 291 292 293 292 292 289 288 286 287 288 290 290 290 292 294 294 296 297 300 301 302 305 307 309 309 309 310 309 308 308 307 304
293 293 291 294 297 296 297 300 299 299 299 301 299 299 297 294 294 293 293 295 294 294 291 287 286 287 288 289 291 293 294 296 297 298 300 303 303 304 306 308 309 309 309 310 311 311 311 309 307
293 292 292 297 298 300 301 304 300 298 302 303 300 299 298 294 294 294 292 293 295 293 289 288 288 288 289 290 292 293 296 299 299 299 301 304 305 305 304 306 307 308 309 310 310 311 313 312 308
295 294 293 293 293 297 299 299 297 296 298 300 300 297 296 295 293 293 292 293 295 290 288 290 288 288 292 293 295 296 298 301 301 301 302 303 304 306 308 309 309 307 309 310 311 311 312 312 311
291 292 292 292 294 295 297 298 297 297 297 299 299 297 296 295 291 292 292 292 294 292 289 291 291 292 296 299 298 299 302 305 307 306 305 306 307 309 311 312 313 311 311 311 312 312 312 313 312
Height
5893 5895 5897 5899 5901 5903 5904 5905 5904 5904 5905 5904 5905 5905 5906 5906 5907 5909 5906 5904 5904 5904 5903 5902 5902 5901 5900 5900 5899 5898 5897 5896 5895 5894 5892 5891 5890 5889 5888 5887 5886 5885 5884 5883 5883 5882 5881 5880 5880
5891 5893 5896 5898 5900 5902 5903 5903 5903 5903 5903 5903 5904 5904 5904 5904 5905 5905 5904 5903 5903 5903 5902 5901 5900 5900 5899 5898 5897 5896 5895 5894 5893 5892 5891 5889 5888 5887 5886 5885 5884 5883 5882 5881 5880 5879 5878 5878 5877
5888 5890 5894 5896 5898 5901 5901 5901 5901 5901 5902 5902 5902 5903 5903 5903 5903 5903 5903 5902 5902 5901 5900 5900 5899 5898 5897 5896 5896 5894 5893 5892 5891 5890 5889 5888 5886 5885 5884 5882 5881 5880 5879 5879 5878 5877 5876 5875 5874
5885 5888 5892 5895 5896 5897 5898 5899 5899 5900 5900 5901 5901 5901 5901 5902 5901 5901 5901 5900 5900 5899 5899 5898 5897 5896 5895 5894 5893 5892 5891 5890 5889 5888 5887 5885 5884 5883 5881 5880 5879 5878 5877 5876 5875 5874 5872 5872 5871
5883 5886 5890 5892 5893 5895 5896 5897 5897 5898 5899 5899 5899 5899 5899 5900 5899 5899 5899 5899 5898 5897 5896 5896 5895 5894 5893 5892 5891 5890 5889 5888 5886 5885 5884 5883 5882 5880 5879 5877 5876 5875 5874 5873 5872 5870 5869 5868 5867
5881 5884 5888 5890 5892 5893 5894 5895 5896 5896 5897 5897 5898 5898 5897 5898 5898 5897 5897 5896 5896 5895 5894 5893 5892 5892 5891 5890 5888 5887 5886 5885 5883 5882 5881 5880 5878 5877 5876 5874 5873 5872 5871 5869 5868 5867 5865 5864 5863
5879 5882 5885 5888 5890 5891 5892 5893 5894 5895 5895 5896 5896 5896 5895 5895 5895 5895 5895 5894 5893 5892 5891 5890 5890 5889 5888 5887 5886 5884 5883 5882 5880 5879 5878 5876 5875 5873 5872 5870 5869 5868 5867 5866 5864 5863 5861 5860 5859
5877 5881 5883 5886 5888 5889 5890 5891 5892 5892 5893 5893 5893 5893 5893 5893 5893 5893 5892 5891 5891 5890 5889 5888 5887 5886 5885 5884 5882 5881 5880 5879 5877 5875 5874 5872 5871 5869 5868 5867 5865 5864 5863 5862 5860 5859 5857 5856 5855
5874 5879 5881 5884 5886 5887 5888 5889 5890 5890 5891 5891 5891 5891 5891 5890 5890 5890 5889 5889 5888 5887 5886 5885 5884 5883 5881 5880 5879 5877 5876 5875 5873 5872 5870 5868 5867 5866 5864 5863 5861 5860 5859 5857 5856 5854 5853 5851 5850
5872 5876 5879 5881 5883 5884 5886 5887 5888 5889 5889 5889 5889 5888 5888 5887 5887 5887 5886 5886 5885 5884 5883 5882 5881 5879 5878 5876 5875 5873 5872 5870 5869 5868 5866 5864 5863 5861 5860 5858 5857 5855 5854 5852 5851 5850 5848 5846 5845
5870 5873 5875 5878 5880 5881 5883 5884 5885 5886 5886 5886 5886 5886 5885 5884 5884 5883 5883 5882 5882 5881 5880 5879 5877 5876 5874 5873 5871 5869 5868 5866 5865 5863 5862 5860 5858 5857 5855 5854 5852 5850 5849 5847 5846 5844 5842 5841 5839
5869 5871 5873 5875 5877 5879 5880 5881 5882 5883 5883 5883 5883 5883 5882 5881 5881 5880 5879 5879 5878 5877 5876 5875 5874 5872 5870 5869 5867 5865 5863 5861 5860 5859 5857 5855 5854 5852 5850 5849 5847 5845 5843 5841 5840 5838 5837 5835 5833
5867 5869 5871 5873 5875 5876 5878 5878 5879 5880 5880 5880 5879 5879 5879 5878 5877 5876 5876 5875 5874 5873 5872 5871 5869 5868 5866 5865 5863 5861 5859 5858 5856 5854 5852 5850 5849 5847 5845 5843 5842 5840 5838 5836 5834 5832 5831 5829 5828
5865 5867 5869 5871 5872 5874 5875 5876 5876 5877 5877 5876 5876 5875 5874 5874 5873 5872 5871 5870 5870 5869 5868 5866 5865 5863 5862 5860 5858 5856 5854 5852 5851 5849 5847 5845 5844 5842 5840 5838 5836 5834 5832 5830 5828 5826 5824 5822 5821
5864 5866 5868 5869 5870 5872 5873 5874 5874 5874 5874 5873 5873 5872 5871 5869 5868 5867 5867 5866 5865 5864 5863 5862 5860 5858 5857 5855 5853 5851 5849 5847 5846 5844 5842 5840 5838 5836 5834 5832 5830 5828 5825 5823 5821 5819 5817 5815 5813
5863 5865 5867 5868 5868 5869 5872 5872 5871 5871 5870 5870 5869 5868 5866 5865 5864 5863 5862 5861 5860 5859 5858 5856 5855 5853 5851 5850 5848 5846 5844 5843 5840 5838 5837 5835 5832 5830 5828 5826 5824 5821 5819 5817 5815 5812 5810 5808 5806
5862 5864 5865 5866 5866 5867 5868 5868 5868 5867 5867 5866 5865 5863 5862 5861 5859 5858 5857 5856 5855 5854 5853 5851 5850 5848 5846 5845 5843 5842 5840 5838 5835 5833 5831 5829 5827 5825 5822 5820 5817 5815 5812 5810 5807 5805 5802 5800 5798
5861 5862 5863 5864 5864 5864 5865 5865 5864 5864 5863 5862 5861 5859 5858 5856 5855 5853 5852 5851 5850 5849 5848 5847 5845 5843 5841 5840 5838 5837 5835 5833 5831 5829 5826 5824 5822 5819 5816 5813 5811 5808 5805 5802 5800 5797 5795 5792 5790
5859 5860 5861 5861 5861 5862 5862 5862 5861 5860 5859 5858 5857 5855 5854 5852 5850 5848 5847 5846 5845 5844 5843 5842 5840 5839 5837 5836 5834 5832 5830 5828 5826 5824 5822 5819 5816 5813 5810 5807 5804 5801 5798 5795 5793 5789 5787 5784 5781
5858 5859 5859 5859 5859 5859 5858 5858 5857 5856 5855 5854 5852 5851 5849 5848 5846 5844 5842 5841 5840 5839 5838 5837 5835 5834 5832 5831 5829 5827 5825 5823 5821 5819 5816 5813 5810 5807 5804 5801 5798 5795 5792 5789 5785 5782 5778 5776 5773
5856 5857 5856 5856 5856 5855 5855 5855 5853 5852 5851 5849 5848 5846 5844 5843 5841 5839 5837 5836 5835 5834 5833 5831 5830 5829 5828 5825 5824 5822 5820 5818 5816 5813 5811 5808 5805 5801 5799 5795 5792 5788 5785 5781 5778 5774 5771 5768 5765
5854 5854 5854 5853 5853 5853 5853 5852 5850 5848 5847 5845 5844 5841 5840 5838 5836 5834 5833 5831 5830 5829 5828 5826 5825 5824 5822 5820 5819 5818 5815 5813 5811 5808 5806 5803 5799 5796 5793 5789 5786 5782 5778 5775 5771 5768 5764 5760 5757
5852 5851 5851 5851 5850 5850 5849 5848 5848 5844 5843 5841 5839 5837 5835 5834 5832 5830 5828 5827 5825 5824 5822 5821 5820 5819 5817 5816 5814 5812 5810 5808 5805 5803 5800 5797 5794 5791 5787 5784 5780 5776 5772 5769 5765 5761 5757 5754 5751
5849 5849 5848 5847 5848 5848 5846 5845 5844 5841 5839 5837 5835 5833 5831 5829 5828 5826 5824 5822 5821 5819 5818 5816 5815 5814 5812 5810 5809 5807 5805 5803 5800 5797 5794 5792 5789 5785 5782 5778 5774 5770 5767 5763 5759 5755 5752 5748 5744
5847 5847 5847 5847 5846 5845 5843 5841 5840 5837 5835 5833 5831 5829 5827 5825 5823 5822 5820 5818 5816 5815 5813 5811 5810 5808 5807 5805 5803 5802 5800 5797 5795 5792 5789 5786 5783 5780 5777 5773 5769 5765 5761 5757 5753 5750 5746 5742 5739
5843 5844 5844 5844 5843 5841 5839 5837 5836 5833 5830 5828 5826 5824 5822 5820 5818 5817 5815 5813 5811 5809 5808 5806 5804 5803 5801 5800 5798 5796 5794 5792 5789 5787 5784 5781 5777 5774 5771 5767 5763 5759 5756 5752 5748 5744 5740 5736 5733
5840 5840 5840 5839 5837 5837 5835 5834 5831 5828 5826 5824 5822 5820 5818 5816 5814 5812 5810 5808 5806 5804 5802 5800 5799 5798 5796 5794 5792 5790 5788 5786 5784 5781 5778 5775 5772 5769 5765 5761 5758 5754 5750 5746 5743 5739 5735 5731 5727
5837 5836 5835 5834 5833 5832 5831 5829 5827 5823 5821 5819 5817 5815 5814 5812 5810 5808 5806 5803 5801 5799 5797 5795 5794 5793 5791 5789 5787 5785 5783 5780 5778 5775 5772 5769 5766 5763 5759 5755 5752 5748 5745 5741 5737 5734 5730 5726 5722
5833 5832 5831 5830 5829 5827 5826 5827 5821 5819 5817 5815 5812 5810 5809 5807 5804 5802 5801 5799 5796 5794 5792 5791 5789 5788 5786 5784 5782 5780 5777 5775 5772 5769 5766 5763 5760 5757 5753 5750 5746 5743 5739 5736 5732 5729 5725 5721 5717
5829 5827 5827 5826 5824 5822 5820 5822 5815 5813 5811 5809 5807 5805 5803 5801 5799 5797 5795 5793 5792 5790 5788 5786 5785 5783 5781 5779 5777 5775 5772 5769 5767 5764 5761 5758 5755 5752 5748 5745 5741 5738 5734 5731 5727 5724 5720 5716 5713